EHI
0 0 0 0 0 0 0 0 0 0 0 0 0 0 0 0 0 0 0 0 0 0 0 0 0 0 0 0 0 0 0 0 0 0 0 0 0 0 0 0 0 0 0
0 0 0 0 0 0 0 0 0 0 0 0 0 0 0 0 0 0 0 0 0 0 0 0 0 0 0 0 0 0 0 0 0 0 0 0 0 0 0 0 0 0 0
0 0 0 0 0 0 0 0 0 0 0 0 0 0 0 0 0 0 0 0 0 0 0 0 0 0 0 0 0 0 0 0 0 0 0 0 0 0 0 0 0 0 0
0 0 0 0 0 0 0 0 0 0 0 0 0 0 0 0 0 0 0 0 0 0 0 0 0 0 0 0 0 0 0 0 0 0 0 0 0 0 0 0 0 0 0
0 0 0 0 0 0 0 0 0 0 0 0 0 0 0 0 0 0 0 0 0 0 0 0 0 0 0 0 0 0 0 0 0 0 0 0 0 0 0 0 0 0 0
0 0 0 0 0 0 0 0 0 0 0 0 0 0 0 0 0 0 0 0 0 0 0 0 0 0 0 0 0 0 0 0 0 0 0 0 0 0 0 0 0 0 0
0 0 0 0 0 0 0 0 0 0 0 0 0 0 0 0 0 0 0 0 0 0 0 0 0 0 0 0 0 0 0 0 0 0 0 0 0 0 0 0 0 0 0
0 0 0 0 0 0 0 0 0 0 0 0 0 0 0 0 0 0 0 0 0 0 0 0 0 0 0 0 0 0 0 0 0 0 0 0 0 0 0 0 0 0 0
0 0 0 0 0 0 0 0 0 0 0 0 0 0 0 0 0 0 0 0 0 0 0 0 0 0 0 0 0 0 0 0 0 0 0 0 0 0 0 0 0 0 0
0 0 0 0 0 0 0 0 0 0 0 0 0 0 0 0 0 0 0 0 0 0 0 0 0 0 0 0 0 0 0 0 0 0 0 0 0 0 0 0 0 0 0
0 0 0 0 0 0 0 0 0 0 0 0 0 0 0 0 0 0 0 0 0 0 0 0 0 0 0 0 0 0 0 0 0 0 0 0 0 0 0 0 0 0 0
0 0 0 0 0 0 0 0 0 0 0 0 0 0 0 0 0 0 0 0 0 0 0 0 0 0 0 0 0 0 0 0 0 0 0 0 0 0 0 0 0 0 0
0 0 0 0 0 0 0 0 0 0 0 0 0 0 0 0 0 0 0 0 0 0 0 0 0 0 0 0 0 0 0 0 0 0 0 0 0 0 0 0 0 0 0
0 0 0 0 0 0 0 0 0 0 0 0 0 0 0 0 0 0 0 0 0 0 0 0 0 0 0 0 0 0 0 0 0 0 0 0 0 0 0 0 0 0 0
0 0 0 0 0 0 0 0 0 0 0 0 0 0 0 0 0 0 0 0 0 0 0 0 0 0 0 0 0 0 0 0 0 0 0 0 0 0 0 0 0 0 0
0 0 0 0 0 0 0 0 0 0 0 0 0 0 0 0 0 0 0 0 0 0 0 0 0 0 0 0 0 0 0 0 0 0 0 0 0 0 0 0 0 0 0
0 0 0 0 0 0 0 0 0 0 0 0 0 0 0 0 0 0 0 0 0 0 0 0 0 0 0 0 0 0 0 0 0 0 0 0 0 0 0 0 0 0 0
0 0 0 0 0 0 0 0 0 0 0 0 0 0 0 0 0 0 0 0 0 0 0 0 0 0 0 0 0 0 0 0 0 0 0 0 0 0 0 0 0 0 0
0 0 0 0 0 0 0 0 0 0 0 0 0 0 0 0 0 0 0 0 0 0 0 0 0 0 0 0 0 0 0 0 0 0 0 0 0 0 0 0 0 0 0
0 0 0 0 0 0 0 0 0 0 0 0 0 0 0 0 0 0 0 0 0 0 0 0 0 0 0 0 0 0 0 0 0 0 0 0 0 0 0 0 0 0 0
0 0 0 0 0 0 0 0 0 0 0 0 0 0 0 0 0 0 0 0 0 0 0 0 0 0 0 0 0 0 0 0 0 0 0 0 0 0 0 0 0 0 0
0 0 0 0 0 0 0 0 0 0 0 0 0 0 0 0 0 0 0 0 0 0 0 0 0 0 0 0 0 0 0 0 0 0 0 0 0 0 0 0 0 0 0
0 0 0 0 0 0 0 0 0 0 0 0 0 0 0 0 0 0 0 0 0 0 0 0 0 0 0 0 0 0 0 0 0 0 0 0 0 0 0 0 0 0 0
0 0 0 0 0 0 0 0 0 0 0 0 0 0 0 0 0 0 0 0 0 0 0 0 0 0 0 0 0 0 0 0 0 0 0 0 0 0 0 0 0 0 0
0 0 0 0 0 0 0 0 0 0 0 0 0 0 0 0 0 0 0 0 0 0 0 0 0 0 0 0 0 0 0 0 0 0 0 0 0 0 0 0 0 0 0
0 0 0 0 0 0 0 0 0 0 0 0 0 0 0 0 0 0 0 0 0 0 0 0 0 0 0 0 0 0 0 0 0 0 0 0 0 0 0 0 0 0 0
Wind_Speed
2 2 2 2 2 2 2 2 2 2 2 2 2 3 3 3 3 2 2 6 7 7 8 9 9 10 10 10 11 10 10 10 10 10 10 10 10 11 11 11 11 11 10
2 2 2 3 2 2 2 1 2 1 2 1 2 2 3 3 3 3 2 4 6 6 7 9 10 11 11 11 11 11 11 11 10 10 10 10 11 11 11 11 11 11 11
3 2 2 2 2 2 3 2 2 1 1 1 2 2 2 2 2 2 2 2 3 5 7 9 10 11 11 11 12 11 11 11 11 11 11 11 11 11 11 11 11 11 11
3 2 2 2 3 2 2 2 1 1 1 1 2 2 1 1 2 2 2 2 2 2 4 8 9 11 11 11 12 12 12 12 11 11 11 11 11 11 11 11 11 11 11
3 2 2 2 3 2 2 2 1 1 1 2 2 1 1 1 2 2 2 2 2 2 2 5 8 9 10 10 11 12 12 12 12 12 12 12 12 12 12 11 12 12 12
3 2 2 2 3 2 3 2 2 2 1 2 2 2 1 1 1 1 2 1 1 1 2 3 3 5 8 9 10 11 12 13 13 13 13 13 12 12 12 12 12 12 12
2 2 2 2 2 2 2 3 2 2 2 1 2 2 3 1 0 1 1 1 0 1 1 2 2 2 3 7 8 9 11 12 13 14 14 14 13 13 13 13 13 13 13
1 1 2 2 2 2 3 3 2 1 2 2 1 1 2 3 3 1 0 0 0 1 1 2 2 2 2 2 4 7 8 10 12 14 14 14 13 13 13 13 13 13 13
0 1 2 1 2 1 1 2 2 2 1 2 1 2 2 0 2 2 2 1 0 0 1 0 2 2 3 2 2 6 7 8 10 13 13 13 13 14 14 14 14 13 13
1 1 1 1 2 1 1 2 1 1 1 1 2 1 1 2 1 1 2 2 0 0 0 0 1 1 2 2 3 5 7 8 9 11 13 13 13 14 14 14 14 13 13
2 1 1 1 1 1 1 2 2 1 1 1 1 1 1 1 1 2 1 2 2 1 1 0 1 1 1 1 2 3 6 7 7 8 10 12 13 13 13 13 14 14 14
2 2 1 0 0 0 1 1 1 1 1 1 1 1 1 1 0 1 1 1 1 2 2 1 0 1 1 1 2 3 5 6 7 7 7 8 10 12 13 14 14 15 15
2 3 1 1 1 1 1 1 1 2 1 2 1 1 1 0 1 1 2 0 1 1 2 2 1 0 1 1 1 3 4 6 6 6 6 7 8 9 11 12 14 14 15
3 3 2 2 2 1 0 1 1 1 1 1 1 1 1 1 0 1 2 2 1 2 2 2 1 1 0 0 1 2 2 4 6 6 6 7 7 7 9 10 11 12 13
3 3 2 2 2 1 0 1 1 1 1 1 1 1 1 1 1 1 1 2 3 1 1 2 1 2 1 1 1 1 1 3 5 6 6 7 7 7 8 8 9 10 10
3 3 2 2 2 1 1 0 0 0 1 1 0 1 1 1 1 1 1 1 2 2 1 1 1 1 1 1 1 1 1 3 4 5 6 7 7 8 8 9 9 9 10
3 3 3 2 2 2 2 1 1 1 0 0 1 1 0 1 1 1 1 1 1 2 1 1 1 1 1 1 1 1 1 1 2 5 6 7 8 8 9 9 9 9 10
4 4 3 3 3 2 2 2 2 1 1 1 1 1 0 1 1 1 1 1 1 1 2 0 2 2 1 1 1 1 1 1 1 5 6 7 7 8 8 9 9 9 10
3 3 3 4 3 3 3 3 2 2 2 2 2 2 2 2 1 0 1 1 0 1 1 1 1 1 1 1 2 2 2 1 2 3 4 5 5 6 7 8 8 9 9
4 4 4 4 4 3 3 3 2 2 2 2 2 3 3 3 3 2 1 1 1 1 1 1 0 1 1 2 1 1 2 2 2 2 2 2 3 4 6 7 7 8 9
5 4 4 4 4 3 4 4 3 3 2 1 2 2 3 4 6 4 3 2 2 1 1 1 0 1 1 1 1 1 1 2 2 1 2 2 2 2 3 5 6 8 8
4 4 4 4 4 4 6 7 5 3 3 2 2 2 3 4 5 5 4 5 5 3 2 1 1 1 2 1 1 0 1 1 2 2 1 3 1 2 3 3 6 8 8
5 4 4 4 4 5 7 7 7 4 3 3 3 3 2 2 3 2 3 3 3 4 5 4 3 3 2 2 1 1 1 1 3 3 1 3 2 3 3 4 7 8 8
5 5 5 5 4 5 8 8 7 4 3 3 4 4 3 3 3 4 3 2 1 2 3 3 4 4 3 3 3 3 2 2 3 3 2 2 2 2 3 3 6 6 6
6 5 5 5 5 5 7 7 6 2 2 3 3 3 4 4 5 6 4 3 1 2 2 2 3 3 3 2 3 1 0 0 2 2 1 1 2 2 3 3 3 4 4
7 6 5 5 5 5 6 7 7 3 3 2 1 2 3 4 4 5 5 4 3 2 0 1 1 2 2 2 1 2 2 1 1 2 2 1 1 2 3 3 2 2 3
Wind_Direction
2 350 345 350 339 327 312 303 304 297 289 274 259 242 235 233 228 222 245 245 229 222 212 202 196 193 189 183 182 181 177 173 170 167 163 161 158 153 148 145 143 140 137
23 10 6 359 346 337 325 308 298 291 285 275 273 264 240 232 231 221 223 248 239 228 218 209 203 200 196 191 185 183 180 178 174 172 167 165 162 159 155 153 151 149 146
40 28 16 357 338 341 352 354 337 334 323 309 289 279 260 235 225 224 220 226 240 237 228 221 211 205 199 195 189 184 182 180 177 175 170 169 167 166 163 161 159 157 154
46 34 18 348 338 353 359 350 346 345 329 312 291 283 272 239 237 229 217 220 221 237 234 232 221 207 201 197 193 188 185 183 181 179 174 172 171 169 167 167 167 166 163
40 38 16 340 349 6 2 347 359 341 317 312 289 274 273 239 231 236 220 221 218 227 225 235 225 209 202 200 195 192 189 187 186 183 179 176 174 173 172 173 174 172 170
34 36 14 352 4 12 359 351 334 329 297 299 311 333 296 258 214 229 235 215 207 236 219 218 212 211 207 202 198 196 194 190 188 187 185 182 180 180 179 179 178 178 177
33 36 13 2 9 12 349 348 347 344 333 348 27 357 347 349 57 229 220 173 183 273 217 197 186 187 209 211 204 198 199 195 192 190 189 188 186 185 184 184 184 184 184
7 34 29 8 4 11 6 7 18 11 346 18 72 58 6 356 356 7 58 119 177 266 226 188 163 179 192 186 201 200 201 199 195 194 194 192 190 189 190 190 191 191 189
284 28 24 24 13 28 6 357 12 42 4 348 45 113 110 289 325 347 8 31 67 264 259 160 168 175 189 186 191 207 205 203 201 199 198 195 194 193 193 194 195 195 194
265 317 16 32 24 19 2 343 36 37 72 9 349 21 130 163 137 357 341 345 357 159 226 188 180 179 181 175 190 199 202 200 204 205 202 198 198 198 197 199 200 199 199
283 289 335 48 38 18 3 8 17 26 57 89 43 15 28 43 72 116 10 337 345 334 321 164 165 168 170 162 176 197 199 200 205 210 208 205 203 203 203 203 204 205 205
293 288 277 32 12 341 344 359 8 35 46 64 63 62 86 83 70 106 125 303 315 315 333 358 124 170 184 167 188 189 200 206 208 212 211 209 209 210 211 211 210 211 211
247 257 257 255 256 271 308 30 40 34 52 71 74 66 77 132 170 142 127 118 3 331 350 354 329 128 181 164 188 182 202 208 211 215 217 216 216 215 217 220 219 218 217
219 226 232 242 249 256 348 60 56 32 73 76 60 63 72 19 74 126 142 131 68 4 9 334 334 356 198 185 189 171 204 212 214 218 221 220 219 222 224 227 229 229 227
219 218 222 232 246 245 199 113 75 31 71 67 58 60 69 28 52 78 116 137 140 115 341 316 334 330 317 215 199 192 199 216 221 229 230 230 226 227 232 233 235 236 236
216 210 224 235 232 237 220 169 227 335 66 32 111 83 50 31 42 55 81 100 127 144 174 288 287 301 313 291 186 211 240 253 246 246 241 239 231 231 234 236 238 240 237
210 214 218 213 213 215 213 196 235 210 137 11 40 106 98 85 78 57 70 81 88 127 151 298 313 334 8 4 341 317 269 247 262 261 256 246 238 234 235 237 239 240 238
214 214 202 199 206 205 200 194 217 208 193 193 194 137 223 133 92 68 78 80 89 138 147 199 331 349 355 321 330 335 321 296 273 268 263 256 248 241 240 241 241 242 241
211 209 191 198 202 198 196 201 200 203 206 208 201 189 199 150 146 155 110 95 84 97 127 143 303 327 327 345 13 0 358 340 303 288 275 265 257 251 247 246 244 243 243
198 203 201 202 202 200 195 194 188 192 210 219 214 208 200 186 186 182 162 160 134 97 94 107 1 336 334 335 32 9 347 336 316 315 313 298 286 270 261 256 250 246 244
201 199 196 203 209 206 206 194 188 186 193 216 231 232 225 213 203 191 177 177 150 128 103 100 12 355 336 353 348 325 319 317 309 313 329 312 300 279 268 264 258 252 247
206 199 204 204 213 221 217 203 188 188 192 201 230 250 249 235 227 213 200 186 174 165 167 168 191 221 261 248 251 298 329 359 316 312 343 299 273 267 262 249 250 252 248
200 206 215 209 218 232 228 216 204 190 201 212 218 228 240 224 212 207 227 217 214 206 191 177 189 217 225 223 201 231 228 227 249 270 324 289 287 273 270 266 258 256 255
199 208 214 212 219 237 232 227 216 198 216 230 220 214 215 231 214 190 186 194 245 264 234 200 201 221 229 225 202 201 216 257 278 276 203 255 288 280 286 280 267 258 254
200 204 205 206 213 240 235 222 204 184 216 244 237 213 203 211 218 188 165 175 208 293 289 224 208 227 248 240 193 153 165 358 311 303 271 224 294 306 297 290 295 288 280
200 200 206 207 206 223 233 221 197 175 195 225 238 223 211 203 202 178 167 171 186 230 286 27 22 357 352 353 348 184 186 184 242 292 308 319 303 334 321 308 312 315 297